Year,Month,Day,Hour,Minute,Value (Times are PST for temperature in C)
2011,04,24,00,00,5.30
2011,04,24,00,01,5.30
2011,04,24,00,02,5.30
2011,04,24,00,03,5.30
2011,04,24,00,04,5.30
2011,04,24,00,05,5.30
2011,04,24,00,06,5.30
2011,04,24,00,07,5.30
2011,04,24,00,08,5.30
2011,04,24,00,09,5.30
2011,04,24,00,10,5.20
2011,04,24,00,11,5.20
2011,04,24,00,12,5.20
2011,04,24,00,13,5.20
2011,04,24,00,14,5.20
2011,04,24,00,15,5.20
2011,04,24,00,16,5.20
2011,04,24,00,17,5.20
2011,04,24,00,18,5.20
2011,04,24,00,19,5.20
2011,04,24,00,20,5.20
2011,04,24,00,21,5.20
2011,04,24,00,22,5.20
2011,04,24,00,23,5.20
2011,04,24,00,24,5.20
2011,04,24,00,25,5.20
2011,04,24,00,26,5.20
2011,04,24,00,27,5.20
2011,04,24,00,28,5.20
2011,04,24,00,29,5.20
2011,04,24,00,30,5.20
2011,04,24,00,31,5.20
2011,04,24,00,32,5.20
2011,04,24,00,33,5.20
2011,04,24,00,34,5.20
2011,04,24,00,35,5.20
2011,04,24,00,36,5.20
2011,04,24,00,37,5.30
2011,04,24,00,38,5.30
2011,04,24,00,39,5.30
2011,04,24,00,40,5.30
2011,04,24,00,41,5.30
2011,04,24,00,42,5.30
2011,04,24,00,43,5.30
2011,04,24,00,44,5.30
2011,04,24,00,45,5.30
2011,04,24,00,46,5.30
2011,04,24,00,47,5.30
2011,04,24,00,48,5.30
2011,04,24,00,49,5.30
2011,04,24,00,50,5.30
2011,04,24,00,51,5.30
2011,04,24,00,52,5.30
2011,04,24,00,53,5.30
2011,04,24,00,54,5.30
2011,04,24,00,55,5.30
2011,04,24,00,56,5.30
2011,04,24,00,57,5.30
2011,04,24,00,58,5.30
2011,04,24,00,59,5.30
2011,04,24,01,00,5.30
2011,04,24,01,01,5.30
2011,04,24,01,02,5.40
2011,04,24,01,03,5.40
2011,04,24,01,04,5.40
2011,04,24,01,05,5.40
2011,04,24,01,06,5.40
2011,04,24,01,07,5.40
2011,04,24,01,08,5.40
2011,04,24,01,09,5.40
2011,04,24,01,10,5.40
2011,04,24,01,11,5.40
2011,04,24,01,12,5.40
2011,04,24,01,13,5.40
2011,04,24,01,14,5.40
2011,04,24,01,15,5.40
2011,04,24,01,16,5.40
2011,04,24,01,17,5.40
2011,04,24,01,18,5.40
2011,04,24,01,19,5.40
2011,04,24,01,20,5.40
2011,04,24,01,21,5.40
2011,04,24,01,22,5.40
2011,04,24,01,23,5.40
2011,04,24,01,24,5.40
2011,04,24,01,25,5.40
2011,04,24,01,26,5.40
2011,04,24,01,27,5.40
2011,04,24,01,28,5.40
2011,04,24,01,29,5.40
2011,04,24,01,30,5.40
2011,04,24,01,31,5.40
2011,04,24,01,32,5.40
2011,04,24,01,33,5.40
2011,04,24,01,34,5.40
2011,04,24,01,35,5.40
2011,04,24,01,36,5.40
2011,04,24,01,37,5.40
2011,04,24,01,38,5.40
2011,04,24,01,39,5.40
2011,04,24,01,40,5.40
2011,04,24,01,41,5.40
2011,04,24,01,42,5.40
2011,04,24,01,43,5.40
2011,04,24,01,44,5.40
2011,04,24,01,45,5.40
2011,04,24,01,46,5.40
2011,04,24,01,47,5.40
2011,04,24,01,48,5.40
2011,04,24,01,49,5.40
2011,04,24,01,50,5.40
2011,04,24,01,51,5.30
2011,04,24,01,52,5.30
2011,04,24,01,53,5.30
2011,04,24,01,54,5.30
2011,04,24,01,55,5.30
2011,04,24,01,56,5.30
2011,04,24,01,57,5.30
2011,04,24,01,58,5.30
2011,04,24,01,59,5.30
2011,04,24,02,00,5.30
2011,04,24,02,01,5.30
2011,04,24,02,02,5.30
2011,04,24,02,03,5.30
2011,04,24,02,04,5.30
2011,04,24,02,05,5.30
2011,04,24,02,06,5.30
2011,04,24,02,07,5.20
2011,04,24,02,08,5.20
2011,04,24,02,09,5.30
2011,04,24,02,10,5.30
2011,04,24,02,11,5.30
2011,04,24,02,12,5.30
2011,04,24,02,13,5.30
2011,04,24,02,14,5.30
2011,04,24,02,15,5.30
2011,04,24,02,16,5.30
2011,04,24,02,17,5.30
2011,04,24,02,18,5.30
2011,04,24,02,19,5.30
2011,04,24,02,20,5.20
2011,04,24,02,21,5.20
2011,04,24,02,22,5.20
2011,04,24,02,23,5.20
2011,04,24,02,24,5.20
2011,04,24,02,25,5.20
2011,04,24,02,26,5.20
2011,04,24,02,27,5.20
2011,04,24,02,28,5.20
2011,04,24,02,29,5.20
2011,04,24,02,30,5.20
2011,04,24,02,31,5.30
2011,04,24,02,32,5.30
2011,04,24,02,33,5.30
2011,04,24,02,34,5.30
2011,04,24,02,35,5.40
2011,04,24,02,36,5.40
2011,04,24,02,37,5.40
2011,04,24,02,38,5.50
2011,04,24,02,39,5.50
2011,04,24,02,40,5.50
2011,04,24,02,41,5.60
2011,04,24,02,42,5.60
2011,04,24,02,43,5.60
2011,04,24,02,44,5.60
2011,04,24,02,45,5.60
2011,04,24,02,46,5.60
2011,04,24,02,47,5.70
2011,04,24,02,48,5.70
2011,04,24,02,49,5.70
2011,04,24,02,50,5.70
2011,04,24,02,51,5.70
2011,04,24,02,52,5.70
2011,04,24,02,53,5.70
2011,04,24,02,54,5.70
2011,04,24,02,55,5.60
2011,04,24,02,56,5.70
2011,04,24,02,57,5.70
2011,04,24,02,58,5.70
2011,04,24,02,59,5.70
2011,04,24,03,00,5.70
2011,04,24,03,01,5.70
2011,04,24,03,02,5.70
2011,04,24,03,03,5.70
2011,04,24,03,04,5.70
2011,04,24,03,05,5.70
2011,04,24,03,06,5.70
2011,04,24,03,07,5.70
2011,04,24,03,08,5.70
2011,04,24,03,09,5.70
2011,04,24,03,10,5.70
2011,04,24,03,11,5.70
2011,04,24,03,12,5.70
2011,04,24,03,13,5.70
2011,04,24,03,14,5.70
2011,04,24,03,15,5.70
2011,04,24,03,16,5.70
2011,04,24,03,17,5.70
2011,04,24,03,18,5.70
2011,04,24,03,19,5.70
2011,04,24,03,20,5.70
2011,04,24,03,21,5.70
2011,04,24,03,22,5.70
2011,04,24,03,23,5.70
2011,04,24,03,24,5.70
2011,04,24,03,25,5.70
2011,04,24,03,26,5.70
2011,04,24,03,27,5.70
2011,04,24,03,28,5.60
2011,04,24,03,29,5.60
2011,04,24,03,30,5.60
2011,04,24,03,31,5.60
2011,04,24,03,32,5.60
2011,04,24,03,33,5.60
2011,04,24,03,34,5.60
2011,04,24,03,35,5.60
2011,04,24,03,36,5.60
2011,04,24,03,37,5.60
2011,04,24,03,38,5.60
2011,04,24,03,39,5.60
2011,04,24,03,40,5.60
2011,04,24,03,41,5.70
2011,04,24,03,42,5.70
2011,04,24,03,43,5.70
2011,04,24,03,44,5.80
2011,04,24,03,45,5.90
2011,04,24,03,46,5.90
2011,04,24,03,47,5.90
2011,04,24,03,48,5.90
2011,04,24,03,49,5.90
2011,04,24,03,50,6.00
2011,04,24,03,51,6.00
2011,04,24,03,52,6.00
2011,04,24,03,53,6.10
2011,04,24,03,54,6.10
2011,04,24,03,55,6.10
2011,04,24,03,56,6.10
2011,04,24,03,57,6.10
2011,04,24,03,58,6.10
2011,04,24,03,59,6.10
2011,04,24,04,00,6.10
2011,04,24,04,01,6.10
2011,04,24,04,02,6.10
2011,04,24,04,03,6.10
2011,04,24,04,04,6.10
2011,04,24,04,05,6.10
2011,04,24,04,06,6.20
2011,04,24,04,07,6.20
2011,04,24,04,08,6.20
2011,04,24,04,09,6.20
2011,04,24,04,10,6.20
2011,04,24,04,11,6.20
2011,04,24,04,12,6.20
2011,04,24,04,13,6.20
2011,04,24,04,14,6.30
2011,04,24,04,15,6.30
2011,04,24,04,16,6.30
2011,04,24,04,17,6.30
2011,04,24,04,18,6.30
2011,04,24,04,19,6.30
2011,04,24,04,20,6.30
2011,04,24,04,21,6.30
2011,04,24,04,22,6.30
2011,04,24,04,23,6.30
2011,04,24,04,24,6.30
2011,04,24,04,25,6.30
2011,04,24,04,26,6.30
2011,04,24,04,27,6.30
2011,04,24,04,28,6.30
2011,04,24,04,29,6.40
2011,04,24,04,30,6.40
2011,04,24,04,31,6.40
2011,04,24,04,32,6.40
2011,04,24,04,33,6.40
2011,04,24,04,34,6.40
2011,04,24,04,35,6.40
2011,04,24,04,36,6.50
2011,04,24,04,37,6.60
2011,04,24,04,38,6.60
2011,04,24,04,39,6.60
2011,04,24,04,40,6.60
2011,04,24,04,41,6.70
2011,04,24,04,42,6.70
2011,04,24,04,43,6.70
2011,04,24,04,44,6.60
2011,04,24,04,45,6.60
2011,04,24,04,46,6.60
2011,04,24,04,47,6.50
2011,04,24,04,48,6.50
2011,04,24,04,49,6.40
2011,04,24,04,50,6.40
2011,04,24,04,51,6.40
2011,04,24,04,52,6.40
2011,04,24,04,53,6.30
2011,04,24,04,54,6.30
2011,04,24,04,55,6.40
2011,04,24,04,56,6.40
2011,04,24,04,57,6.40
2011,04,24,04,58,6.40
2011,04,24,04,59,6.40
2011,04,24,05,00,6.40
2011,04,24,05,01,6.40
2011,04,24,05,02,6.40
2011,04,24,05,03,6.40
2011,04,24,05,04,6.40
2011,04,24,05,05,6.50
2011,04,24,05,06,6.50
2011,04,24,05,07,6.50
2011,04,24,05,08,6.60
2011,04,24,05,09,6.60
2011,04,24,05,10,6.60
2011,04,24,05,11,6.60
2011,04,24,05,12,6.60
2011,04,24,05,13,6.60
2011,04,24,05,14,6.60
2011,04,24,05,15,6.60
2011,04,24,05,16,6.60
2011,04,24,05,17,6.60
2011,04,24,05,18,6.60
2011,04,24,05,19,6.50
2011,04,24,05,20,6.50
2011,04,24,05,21,6.50
2011,04,24,05,22,6.50
2011,04,24,05,23,6.50
2011,04,24,05,24,6.50
2011,04,24,05,25,6.40
2011,04,24,05,26,6.40
2011,04,24,05,27,6.40
2011,04,24,05,28,6.40
2011,04,24,05,29,6.40
2011,04,24,05,30,6.40
2011,04,24,05,31,6.40
2011,04,24,05,32,6.40
2011,04,24,05,33,6.40
2011,04,24,05,34,6.40
